Voltar ao catálogo

STARLINK-6194

AtivoComunicaçõesVLEO
NORAD 57077·PAYLOAD·🇺🇸 United States

Lançado Jun 22, 2023 de Vandenberg Space Force Base

Loading…

Próximas Passagens (próximas 24 horas)

TLE

AtualizadoSource: CelesTrak SupGP

Época: Sep 15, 2026, 02:23 UTC

1 57077C 23088AF  26258.09979167  .00038728  00000+0  14024-2 0  2586
2 57077  43.0021 106.8040 0001382 276.0799  94.8255 15.27566652    10

Acompanhe STARLINK-6194 em tempo real com AllMySat

Download on the App Store